Regional Weather Roundup
Issued by NWS

Home | Current Version | Previous Version | Graphics & Text | Print | Product List | Glossary On
Versions: 1 2 3 4 5 6 7 8 9 10 11 12 13 14 15 16 17 18 19 20 21 22 23 24 25 26 27 28 29 30 31 32 33 34 35 36 37 38 39 40 41 42 43 44 45 46 47
000
ASUS43 KDMX 042107
RWRIA

WEATHER ROUNDUP FOR IOWA
NATIONAL WEATHER SERVICE DES MOINES IA
400 PM CDT SAT JUL 04 2015

NOTE: "FAIR" INDICATES FEW OR NO CLOUDS BELOW 12,000 FEET WITH NO
SIGNIFICANT WEATHER AND/OR OBSTRUCTIONS TO VISIBILITY.

* - THESE STATIONS ARE NOT NWS STATIONS...THUS NOT UNDER NWS
QUALITY CONTROL.  THEY ALSO DO NOT REPORT WEATHER SUCH
AS PRECIPITATION OR FOG.

IAZ001>003-012>014-020>022-031>034-043>046-042200-
   NORTHWEST IOWA

CITY           SKY/WX    TMP DP  RH WIND       PRES   REMARKS
CARROLL *      SUNNY     81  59  47 S12       29.97F HX  81
CHEROKEE *     MOSUNNY   81  63  54 S10       29.96S HX  82
DENISON *      SUNNY     79  59  50 S10G17    29.95F HX  80
LE MARS *      MOSUNNY   81  66  61 S14G20    29.94F HX  83
ORANGE CITY *  SUNNY     79  64  61 S12       29.94F HX  81
SHELDON *      SUNNY     79  66  65 S13G18    29.93F HX  81
SIOUX CITY     PTSUNNY   82  65  56 S14       29.93F HX  84
SPENCER        MOSUNNY   82  60  47 S7        29.96F HX  82
STORM LAKE *   SUNNY     79  59  50 SW12      29.98F HX  80
$$

IAZ055>058-069>071-079>083-090>094-042200-
   SOUTHWEST IOWA

CITY           SKY/WX    TMP DP  RH WIND       PRES   REMARKS
ATLANTIC *     SUNNY     81  59  47 S8G14     29.97F HX  81
AUDUBON *      SUNNY     81  61  50 S8        29.99F HX  81
CLARINDA *     SUNNY     82  59  44 SW10      29.99F HX  82
COUNCIL BLFS * SUNNY     81  63  54 S14       29.98S HX  82
CRESTON *      SUNNY     81  61  50 S8G15     29.99F HX  81
HARLAN  *      SUNNY     81  61  50 S12G17    30.00F HX  81
LAMONI         SUNNY     81  60  48 S5        29.99F HX  82
RED OAK *      SUNNY     81  59  47 S9        29.97F HX  81
SHENANDOAH *   SUNNY     81  63  54 S8        29.98F HX  82
$$

IAZ047>049-059>061-072>074-084-042200-
   CENTRAL IOWA

CITY           SKY/WX    TMP DP  RH WIND       PRES   REMARKS
AMES           SUNNY     80  58  46 S6        29.98F HX  80
ANKENY *       SUNNY     81  63  54 VRB5G12   29.98F HX  82
CHARITON *     SUNNY     81  61  50 S6G12     29.99F HX  81
DES MOINES     CLOUDY    82  58  43 S6        29.98F HX  82
GRINNELL*      SUNNY     79  59  50 SE3       30.01S HX  80
KNOXVILLE *    SUNNY     79  57  47 S5        29.98F HX  80
MARSHALLTOWN   SUNNY     79  62  56 S12       29.99S HX  80
PELLA *        SUNNY     82  61  47 CALM      30.00F HX  83
PERRY *          N/A     81  57  44 S6        29.98F HX  81
$$

IAZ004>006-015-016-023>025-035-036-042200-
   NORTH CENTRAL IOWA

CITY           SKY/WX    TMP DP  RH WIND       PRES   REMARKS
ALGONA *       SUNNY     81  61  50 SW10      29.97F HX  81
CLARION *      SUNNY     81  59  47 S10       29.98F HX  81
ESTHERVILLE    MOSUNNY   79  62  56 S9        29.95F HX  80
FORT DODGE *   SUNNY     81  59  47 S8        29.98F HX  81
MASON CITY     SUNNY     81  61  50 SW13      29.99F HX  82
FOREST CITY *  SUNNY     77  57  50 S8        29.98S
IOWA FALLS *     N/A     79  59  50 S6        30.00F HX  80
$$

IAZ007>011-017>019-026>030-037>042-050>054-066-042200-
   NORTHEAST IOWA

CITY           SKY/WX    TMP DP  RH WIND       PRES   REMARKS
CEDAR RAPIDS   MOSUNNY   78  63  59 VRB6      29.99F HX  80
CHARLES CITY * SUNNY     79  64  61 SW7       30.00S HX  81
CLINTON *      MOSUNNY   79  63  57 S5        30.03S HX  80
DECORAH *        N/A    N/A N/A N/A MISG        N/A
DUBUQUE        MOSUNNY   79  61  53 W7        30.01S HX  80
MONTICELLO *   SUNNY     81  61  50 W7        30.00S HX  81
OELWEIN *      SUNNY     79  59  50 W7G13     30.00F HX  80
WATERLOO       SUNNY     81  60  48 S7        29.98F HX  82
$$

IAZ064-065-067-068-078-042200-
   EAST CENTRAL IOWA

CITY           SKY/WX    TMP DP  RH WIND       PRES   REMARKS
DAVENPORT      SUNNY     79  62  56 S6        30.01S HX  80
IOWA CITY      SUNNY     80  59  48 S7        30.00F HX  81
MT. PLEASANT * MOSUNNY   82  54  36 SW6       30.00F HX  81
MUSCATINE *    SUNNY     81  57  44 SW6       30.00F HX  81
QUAD CITIES    SUNNY     81  60  48 SW8       30.00S HX  82
$$

IAZ062-063-075>077-085>089-095>099-042200-
   SOUTHEAST IOWA

CITY           SKY/WX    TMP DP  RH WIND       PRES   REMARKS
BURLINGTON     SUNNY     79  62  56 S3        30.00F HX  80
FAIRFIELD *    SUNNY     79  57  47 CALM      30.00F HX  80
FORT MADISON * SUNNY     79  63  57 S5        30.01F HX  80
KEOKUK *       SUNNY     79  59  50 CALM      30.00S HX  80
OSKALOOSA *      N/A     79  61  53 S5        30.00F HX  80
CENTERVILLE *  SUNNY     81  61  50 CALM      30.01F HX  81
OTTUMWA        SUNNY     79  63  57 S6        29.98F HX  80
WASHINGTON *   SUNNY     79  63  57 CALM      30.01F HX  80
$$

ABBREVIATIONS USED IN REMARKS
   TC - TEMPERATURES IN CELSIUS
  WCI - WIND CHILL INDEX
   HX - HEAT INDEX
  VSB - VISIBILITY
$$




USA.gov is the U.S. government's official web portal to all federal, state and local government web resources and services.